TimePDT,TemperatureF,Dew PointF,Humidity,Sea Level PressureIn,VisibilityMPH,Wind Direction,Wind SpeedMPH,Gust SpeedMPH,PrecipitationIn,Events,Conditions,WindDirDegrees,DateUTC
12:15 AM,60.8,59.0,94,29.89,7.0,NW,13.8,-,N/A,,Unknown,320,2013-09-17 07:15:00
12:35 AM,60.8,59.0,94,29.89,7.0,NW,13.8,-,N/A,,Overcast,320,2013-09-17 07:35:00
12:55 AM,60.8,59.0,94,29.89,7.0,NW,10.4,-,N/A,,Overcast,320,2013-09-17 07:55:00
1:15 AM,59.0,57.2,94,29.89,7.0,NW,10.4,-,N/A,,Overcast,320,2013-09-17 08:15:00
1:35 AM,59.0,57.2,94,29.89,7.0,NNW,8.1,-,N/A,,Overcast,330,2013-09-17 08:35:00
1:55 AM,59.0,57.2,94,29.89,7.0,NW,10.4,-,N/A,,Overcast,320,2013-09-17 08:55:00
2:15 AM,59.0,57.2,94,29.89,6.0,NW,10.4,-,N/A,,Mist,320,2013-09-17 09:15:00
2:35 AM,59.0,57.2,94,29.89,7.0,NW,11.5,17.3,N/A,,Unknown,320,2013-09-17 09:35:00
2:55 AM,59.0,57.2,94,29.89,7.0,NNW,12.7,-,N/A,,Unknown,330,2013-09-17 09:55:00
3:15 AM,59.0,57.2,94,29.88,7.0,NNW,11.5,-,N/A,,Unknown,330,2013-09-17 10:15:00
3:35 AM,59.0,57.2,94,29.88,8.0,NNW,12.7,20.7,N/A,,Overcast,340,2013-09-17 10:35:00
3:55 AM,59.0,57.2,94,29.88,7.0,NNW,9.2,-,N/A,,Overcast,330,2013-09-17 10:55:00
4:15 AM,59.0,57.2,94,29.88,7.0,NNW,9.2,16.1,N/A,,Overcast,330,2013-09-17 11:15:00
4:35 AM,59.0,57.2,94,29.88,8.0,NW,12.7,21.9,N/A,,Overcast,320,2013-09-17 11:35:00
4:55 AM,59.0,57.2,94,29.88,9.0,NNW,13.8,21.9,N/A,,Unknown,330,2013-09-17 11:55:00
5:15 AM,59.0,57.2,94,29.88,8.0,NNW,11.5,18.4,N/A,,Unknown,330,2013-09-17 12:15:00
5:35 AM,59.0,57.2,94,29.89,8.0,NNW,10.4,-,N/A,,Unknown,330,2013-09-17 12:35:00
5:55 AM,59.0,57.2,94,29.89,8.0,NNW,15.0,-,N/A,,Unknown,340,2013-09-17 12:55:00
6:15 AM,59.0,57.2,94,29.89,8.0,NNW,11.5,20.7,N/A,,Unknown,340,2013-09-17 13:15:00
6:35 AM,59.0,57.2,94,29.90,8.0,NNW,12.7,26.5,N/A,,Unknown,340,2013-09-17 13:35:00
6:55 AM,59.0,57.2,94,29.90,8.0,NNW,11.5,-,N/A,,Overcast,340,2013-09-17 13:55:00
7:15 AM,59.0,57.2,94,29.90,6.0,North,11.5,-,N/A,,Overcast,350,2013-09-17 14:15:00
7:35 AM,59.0,57.2,94,29.91,5.0,North,13.8,21.9,N/A,,Overcast,350,2013-09-17 14:35:00
7:55 AM,59.0,55.4,88,29.91,5.0,North,10.4,20.7,N/A,,Overcast,350,2013-09-17 14:55:00
8:15 AM,59.0,55.4,88,29.91,5.0,NNW,15.0,21.9,N/A,,Overcast,340,2013-09-17 15:15:00
8:35 AM,59.0,55.4,88,29.92,5.0,North,13.8,21.9,N/A,,Overcast,350,2013-09-17 15:35:00
8:55 AM,59.0,57.2,94,29.92,5.0,NNW,11.5,18.4,N/A,,Overcast,340,2013-09-17 15:55:00
9:15 AM,59.0,55.4,88,29.92,5.0,North,10.4,18.4,N/A,,Overcast,350,2013-09-17 16:15:00
9:35 AM,59.0,57.2,94,29.93,5.0,North,11.5,16.1,N/A,,Mist,350,2013-09-17 16:35:00
9:55 AM,59.0,55.4,88,29.93,5.0,North,8.1,-,N/A,,Overcast,360,2013-09-17 16:55:00
10:15 AM,60.8,55.4,82,29.94,6.0,NNW,9.2,19.6,N/A,,Haze,340,2013-09-17 17:15:00
10:35 AM,60.8,55.4,82,29.94,6.0,NNW,10.4,-,N/A,,Haze,340,2013-09-17 17:35:00
10:55 AM,60.8,55.4,82,29.94,7.0,North,11.5,-,N/A,,Overcast,350,2013-09-17 17:55:00
11:15 AM,60.8,55.4,82,29.94,6.0,NNW,12.7,18.4,N/A,,Haze,340,2013-09-17 18:15:00
11:35 AM,62.6,55.4,77,29.93,6.0,NNW,15.0,21.9,N/A,,Haze,340,2013-09-17 18:35:00
11:55 AM,64.4,55.4,73,29.94,7.0,North,12.7,20.7,N/A,,Partly Cloudy,350,2013-09-17 18:55:00
12:15 PM,64.4,55.4,73,29.93,7.0,NNW,17.3,23.0,N/A,,Partly Cloudy,340,2013-09-17 19:15:00
12:30 PM,64.4,55.4,73,29.94,6.0,NNW,16.1,23.0,N/A,,Haze,330,2013-09-17 19:30:00
12:55 PM,64.4,55.4,73,29.94,7.0,NNW,15.0,20.7,N/A,,Clear,340,2013-09-17 19:55:00
1:15 PM,64.4,55.4,73,29.93,7.0,NNW,17.3,25.3,N/A,,Clear,340,2013-09-17 20:15:00
1:35 PM,64.4,55.4,73,29.93,6.0,NNW,21.9,25.3,N/A,,Haze,340,2013-09-17 20:35:00
1:55 PM,64.4,55.4,73,29.93,7.0,NNW,18.4,29.9,N/A,,Clear,340,2013-09-17 20:55:00
2:15 PM,64.4,55.4,73,29.93,7.0,North,18.4,25.3,N/A,,Clear,350,2013-09-17 21:15:00
2:35 PM,64.4,55.4,73,29.93,7.0,North,16.1,24.2,N/A,,Scattered Clouds,350,2013-09-17 21:35:00
2:55 PM,64.4,55.4,73,29.92,7.0,NNW,21.9,28.8,N/A,,Mostly Cloudy,340,2013-09-17 21:55:00
3:15 PM,64.4,55.4,73,29.92,7.0,NNW,19.6,27.6,N/A,,Mostly Cloudy,330,2013-09-17 22:15:00
3:35 PM,64.4,55.4,73,29.92,7.0,NNW,18.4,27.6,N/A,,Overcast,330,2013-09-17 22:35:00
3:55 PM,64.4,55.4,73,29.91,7.0,NW,20.7,29.9,N/A,,Scattered Clouds,320,2013-09-17 22:55:00
4:15 PM,62.6,55.4,77,29.91,5.0,NNW,20.7,26.5,N/A,,Haze,340,2013-09-17 23:15:00
4:35 PM,62.6,53.6,72,29.91,6.0,North,16.1,24.2,N/A,,Haze,360,2013-09-17 23:35:00
4:55 PM,62.6,53.6,72,29.90,6.0,North,18.4,29.9,N/A,,Haze,350,2013-09-17 23:55:00
5:15 PM,60.8,53.6,77,29.90,5.0,North,18.4,27.6,N/A,,Haze,350,2013-09-18 00:15:00
5:35 PM,59.0,53.6,82,29.90,5.0,NNW,15.0,27.6,N/A,,Haze,330,2013-09-18 00:35:00
5:55 PM,59.0,53.6,82,29.90,5.0,North,17.3,26.5,N/A,,Haze,350,2013-09-18 00:55:00
6:15 PM,59.0,53.6,82,29.90,5.0,NNW,16.1,23.0,N/A,,Haze,340,2013-09-18 01:15:00
6:35 PM,59.0,53.6,82,29.91,5.0,North,10.4,21.9,N/A,,Haze,350,2013-09-18 01:35:00
6:55 PM,59.0,53.6,82,29.89,5.0,NNW,19.6,23.0,N/A,,Haze,340,2013-09-18 01:55:00
7:15 PM,59.0,53.6,82,29.90,5.0,North,11.5,18.4,N/A,,Haze,10,2013-09-18 02:15:00
7:35 PM,59.0,53.6,82,29.89,5.0,North,15.0,19.6,N/A,,Haze,350,2013-09-18 02:35:00
7:55 PM,59.0,53.6,82,29.90,7.0,North,13.8,20.7,N/A,,Partly Cloudy,360,2013-09-18 02:55:00
8:15 PM,57.2,53.6,88,29.89,6.0,NNW,19.6,24.2,N/A,,Haze,340,2013-09-18 03:15:00
8:35 PM,57.2,53.6,88,29.90,6.0,North,18.4,26.5,N/A,,Haze,350,2013-09-18 03:35:00
8:55 PM,57.2,53.6,88,29.90,6.0,NNW,20.7,27.6,N/A,,Haze,340,2013-09-18 03:55:00
9:15 PM,57.2,53.6,88,29.90,6.0,North,20.7,28.8,N/A,,Haze,350,2013-09-18 04:15:00
9:35 PM,57.2,53.6,88,29.90,6.0,North,17.3,25.3,N/A,,Mist,350,2013-09-18 04:35:00
9:55 PM,57.2,53.6,88,29.92,5.0,NNE,8.1,-,N/A,,Mist,20,2013-09-18 04:55:00
10:15 PM,57.2,51.8,82,29.92,5.0,North,6.9,-,N/A,,Haze,350,2013-09-18 05:15:00
10:35 PM,57.2,53.6,88,29.92,5.0,North,9.2,-,N/A,,Clear,10,2013-09-18 05:35:00
10:55 PM,55.4,51.8,88,29.92,5.0,North,3.5,-,N/A,,Clear,360,2013-09-18 05:55:00
11:15 PM,55.4,51.8,88,29.92,5.0,North,8.1,-,N/A,,Partly Cloudy,360,2013-09-18 06:15:00
11:35 PM,55.4,51.8,88,29.93,5.0,North,4.6,-,N/A,,Partly Cloudy,10,2013-09-18 06:35:00
11:55 PM,55.4,50.0,82,29.92,5.0,NNE,4.6,-,N/A,,Partly Cloudy,30,2013-09-18 06:55:00